Weather in Korfovsky

Russia / Khabarovsk Krai     48°13′09″N   135°03′52″E
temp.,
°C
wind,
m/s
gust,
m/s
humid.,
%
clouds,
%
prec.,
mm/h
press.,
hPa
HPBL,
m
4 march, thu
thu401:00−10sse2296100 0.7 101953
04:00−8s2396100 1.3 1016112
07:00−7sse3596100 0.7 1014163
10:00−4ssw41194100 1.8 1014625
13:000sw4109899 0.9 1013866
16:000sw3999100 1.5 1012735
19:00−1sw2699100 2.5 1011353
22:000sw2899100 4.3 1010464
5 march, fri
fri501:000wsw2498100 1.3 1009218
04:00−1sw3899100 1.9 1008534
07:00−1wsw3798100 1.0 1008365
10:00−5wnw4895100 3.3 1009500
13:00−7wnw61085100 0.8 1013801
16:00−9w698197 1.0 10171244
19:00−17wsw498233 0.0 1022213
22:00−22wsw369033 0.0 1025126
6 march, sat
sat601:00−25wsw47890 0.0 1027142
04:00−26wsw47890 0.0 1030131
07:00−26wsw36870 0.0 1031119
10:00−21sw36870 0.0 1032302
13:00−16wsw47770 0.0 1031768
16:00−14wsw59780 0.0 1030869
19:00−17sw478722 0.0 1030160
22:00−19wsw369011 0.0 1030100
7 march, sun
sun701:00−20sw349821 0.0 102972
04:00−21sw339429 0.0 102952
07:00−22sw33968 0.0 102966
10:00−18sw469354 0.0 1029265
13:00−14sw4787100 0.0 1027475
16:00−12sw4783100 0.0 1025601
19:00−14sw2389100 0.0 102477
22:00−16wsw338588 0.0 102538
8 march, mon
mon801:00−17wsw33880 0.0 102452
04:00−18sw33930 0.0 102561
07:00−19sw34930 0.0 102669
10:00−15sw35886 0.0 1027190
13:00−11sw468741 0.0 1026338
16:00−10sw478957 0.0 1025450
19:00−12sw349489 0.0 102596
22:00−12sw359494 0.0 1025121